Time,TemperatureF,DewpointF,PressureIn,WindDirection,WindDirectionDegrees,WindSpeedMPH,WindSpeedGustMPH,Humidity,HourlyPrecipIn,Conditions,Clouds,dailyrainin,SoftwareType,DateUTC
2013-03-04 00:02:00,63.0,25.6,29.91,SW,225,0.0,0.0,24,0.00,,---,0.00,VWS V14.01,2013-03-04 07:02:00,
2013-03-04 00:07:00,63.0,25.6,29.91,WSW,248,0.0,0.0,24,0.00,,---,0.00,VWS V14.01,2013-03-04 07:07:00,
2013-03-04 00:12:00,63.0,25.6,29.91,South,180,0.0,0.0,24,0.00,,---,0.00,VWS V14.01,2013-03-04 07:12:00,
2013-03-04 00:17:00,63.0,25.6,29.91,SSW,202,0.0,0.0,24,0.00,,---,0.00,VWS V14.01,2013-03-04 07:17:00,
2013-03-04 00:22:00,62.8,25.5,29.91,SSW,202,0.0,0.0,24,0.00,,---,0.00,VWS V14.01,2013-03-04 07:22:00,
2013-03-04 00:27:00,62.8,25.5,29.88,South,180,0.0,0.0,24,0.00,,---,0.00,VWS V14.01,2013-03-04 07:27:00,
2013-03-04 00:32:00,63.0,25.6,29.88,SSW,202,0.0,0.0,24,0.00,,---,0.00,VWS V14.01,2013-03-04 07:32:00,
2013-03-04 00:37:00,63.0,25.6,29.88,SW,225,0.0,0.0,24,0.00,,---,0.00,VWS V14.01,2013-03-04 07:37:00,
2013-03-04 00:42:00,63.1,25.8,29.88,SSW,202,0.0,0.0,24,0.00,,---,0.00,VWS V14.01,2013-03-04 07:42:00,
2013-03-04 00:47:00,63.1,25.8,29.88,South,180,0.0,0.0,24,0.00,,---,0.00,VWS V14.01,2013-03-04 07:47:00,
2013-03-04 00:52:00,63.3,25.9,29.88,SW,225,0.0,0.0,24,0.00,,---,0.00,VWS V14.01,2013-03-04 07:52:00,
2013-03-04 00:57:00,63.1,25.8,29.88,SSW,202,0.0,0.0,24,0.00,,---,0.00,VWS V14.01,2013-03-04 07:57:00,
2013-03-04 01:03:00,63.1,25.8,29.88,SSE,158,0.0,0.0,24,0.00,,---,0.00,VWS V14.01,2013-03-04 08:03:00,
2013-03-04 01:08:00,63.1,25.8,29.88,SSW,202,0.0,0.0,24,0.00,,---,0.00,VWS V14.01,2013-03-04 08:08:00,
2013-03-04 01:13:00,63.1,25.8,29.88,WSW,248,0.0,0.0,24,0.00,,---,0.00,VWS V14.01,2013-03-04 08:13:00,
2013-03-04 01:18:00,63.1,25.8,29.88,SSW,202,0.0,0.0,24,0.00,,---,0.00,VWS V14.01,2013-03-04 08:18:00,
2013-03-04 01:23:00,63.1,25.8,29.88,SSW,202,0.0,0.0,24,0.00,,---,0.00,VWS V14.01,2013-03-04 08:23:00,
2013-03-04 01:28:00,63.1,25.8,29.88,South,180,0.0,0.0,24,0.00,,---,0.00,VWS V14.01,2013-03-04 08:28:00,
2013-03-04 01:33:00,63.1,25.8,29.88,SSW,202,0.0,0.0,24,0.00,,---,0.00,VWS V14.01,2013-03-04 08:33:00,
2013-03-04 01:38:00,63.0,25.6,29.88,West,270,0.0,0.0,24,0.00,,---,0.00,VWS V14.01,2013-03-04 08:38:00,
2013-03-04 01:43:00,63.0,25.6,29.88,West,270,0.0,0.0,24,0.00,,---,0.00,VWS V14.01,2013-03-04 08:43:00,
2013-03-04 01:48:00,63.0,25.6,29.88,SSW,202,0.0,0.0,24,0.00,,---,0.00,VWS V14.01,2013-03-04 08:48:00,
2013-03-04 01:53:00,63.0,25.6,29.88,WSW,248,0.0,0.0,24,0.00,,---,0.00,VWS V14.01,2013-03-04 08:53:00,
2013-03-04 01:58:00,62.8,25.5,29.88,NNW,338,0.0,0.0,24,0.00,,---,0.00,VWS V14.01,2013-03-04 08:58:00,
2013-03-04 02:03:00,62.6,25.3,29.88,WSW,248,0.0,0.0,24,0.00,,---,0.00,VWS V14.01,2013-03-04 09:03:00,
2013-03-04 02:08:00,62.2,26.0,29.88,WSW,248,0.0,0.0,25,0.00,,---,0.00,VWS V14.01,2013-03-04 09:08:00,
2013-03-04 02:13:00,62.1,25.9,29.88,WSW,248,0.0,0.0,25,0.00,,---,0.00,VWS V14.01,2013-03-04 09:13:00,
2013-03-04 02:18:00,62.1,25.9,29.88,WSW,248,0.0,0.0,25,0.00,,---,0.00,VWS V14.01,2013-03-04 09:18:00,
2013-03-04 02:23:00,61.9,25.7,29.88,WSW,248,0.0,0.0,25,0.00,,---,0.00,VWS V14.01,2013-03-04 09:23:00,
2013-03-04 02:28:00,61.9,25.7,29.88,West,270,0.0,0.0,25,0.00,,---,0.00,VWS V14.01,2013-03-04 09:28:00,
2013-03-04 02:33:00,61.9,25.7,29.88,NNW,338,0.0,0.0,25,0.00,,---,0.00,VWS V14.01,2013-03-04 09:33:00,
2013-03-04 02:39:00,61.9,25.7,29.88,WNW,292,0.0,0.0,25,0.00,,---,0.00,VWS V14.01,2013-03-04 09:39:00,
2013-03-04 02:44:00,62.1,25.9,29.88,WSW,248,0.0,0.0,25,0.00,,---,0.00,VWS V14.01,2013-03-04 09:44:00,
2013-03-04 02:49:00,61.7,25.5,29.88,NW,315,0.0,0.0,25,0.00,,---,0.00,VWS V14.01,2013-03-04 09:49:00,
2013-03-04 02:54:00,61.7,25.5,29.88,West,270,0.0,0.0,25,0.00,,---,0.00,VWS V14.01,2013-03-04 09:54:00,
2013-03-04 02:59:00,61.3,25.2,29.88,WNW,292,0.0,0.0,25,0.00,,---,0.00,VWS V14.01,2013-03-04 09:59:00,
2013-03-04 03:04:00,61.3,25.2,29.88,NW,315,0.0,0.0,25,0.00,,---,0.00,VWS V14.01,2013-03-04 10:04:00,
2013-03-04 03:09:00,61.3,25.2,29.88,NW,315,0.0,0.0,25,0.00,,---,0.00,VWS V14.01,2013-03-04 10:09:00,
2013-03-04 03:14:00,61.2,25.1,29.85,North,0,0.0,0.0,25,0.00,,---,0.00,VWS V14.01,2013-03-04 10:14:00,
2013-03-04 03:19:00,61.3,25.2,29.85,North,0,0.0,0.0,25,0.00,,---,0.00,VWS V14.01,2013-03-04 10:19:00,
2013-03-04 03:24:00,61.0,24.9,29.85,North,0,0.0,0.0,25,0.00,,---,0.00,VWS V14.01,2013-03-04 10:24:00,
2013-03-04 03:29:00,60.8,24.8,29.88,North,0,0.0,0.0,25,0.00,,---,0.00,VWS V14.01,2013-03-04 10:29:00,
2013-03-04 03:34:00,60.4,24.5,29.88,NNW,338,0.0,0.0,25,0.00,,---,0.00,VWS V14.01,2013-03-04 10:34:00,
2013-03-04 03:39:00,60.4,24.5,29.88,NNE,22,0.0,0.0,25,0.00,,---,0.00,VWS V14.01,2013-03-04 10:39:00,
2013-03-04 03:44:00,60.4,24.5,29.85,WNW,292,0.0,0.0,25,0.00,,---,0.00,VWS V14.01,2013-03-04 10:44:00,
2013-03-04 03:49:00,60.4,24.5,29.85,WNW,292,0.0,0.0,25,0.00,,---,0.00,VWS V14.01,2013-03-04 10:49:00,
2013-03-04 03:54:00,60.4,24.5,29.85,WNW,292,0.0,0.0,25,0.00,,---,0.00,VWS V14.01,2013-03-04 10:54:00,
2013-03-04 04:00:00,60.3,24.3,29.85,WNW,292,0.0,0.0,25,0.00,,---,0.00,VWS V14.01,2013-03-04 11:00:00,
2013-03-04 04:05:00,60.3,24.3,29.85,WNW,292,0.0,0.0,25,0.00,,---,0.00,VWS V14.01,2013-03-04 11:05:00,
2013-03-04 04:10:00,60.3,24.3,29.85,ESE,112,0.0,0.0,25,0.00,,---,0.00,VWS V14.01,2013-03-04 11:10:00,
2013-03-04 04:15:00,60.4,24.5,29.85,ESE,112,0.0,0.0,25,0.00,,---,0.00,VWS V14.01,2013-03-04 11:15:00,
2013-03-04 04:20:00,60.3,24.3,29.85,SSE,158,0.0,0.0,25,0.00,,---,0.00,VWS V14.01,2013-03-04 11:20:00,
2013-03-04 04:25:00,60.3,24.3,29.85,SE,135,0.0,0.0,25,0.00,,---,0.00,VWS V14.01,2013-03-04 11:25:00,
2013-03-04 04:30:00,60.3,24.3,29.85,SE,135,0.0,0.0,25,0.00,,---,0.00,VWS V14.01,2013-03-04 11:30:00,
2013-03-04 04:35:00,60.1,24.2,29.85,SSE,158,0.0,0.0,25,0.00,,---,0.00,VWS V14.01,2013-03-04 11:35:00,
2013-03-04 04:40:00,60.3,24.3,29.85,SSW,202,0.0,0.0,25,0.00,,---,0.00,VWS V14.01,2013-03-04 11:40:00,
2013-03-04 04:45:00,60.3,24.3,29.85,South,180,0.0,0.0,25,0.00,,---,0.00,VWS V14.01,2013-03-04 11:45:00,
2013-03-04 04:50:00,60.3,24.3,29.85,South,180,0.0,0.0,25,0.00,,---,0.00,VWS V14.01,2013-03-04 11:50:00,
2013-03-04 04:55:00,60.3,24.3,29.85,WSW,248,0.0,0.0,25,0.00,,---,0.00,VWS V14.01,2013-03-04 11:55:00,
2013-03-04 05:00:00,60.1,24.2,29.88,NNW,338,0.0,0.0,25,0.00,,---,0.00,VWS V14.01,2013-03-04 12:00:00,
2013-03-04 05:05:00,60.3,24.3,29.88,WNW,292,0.0,0.0,25,0.00,,---,0.00,VWS V14.01,2013-03-04 12:05:00,
2013-03-04 05:10:00,60.3,24.3,29.88,NW,315,0.0,0.0,25,0.00,,---,0.00,VWS V14.01,2013-03-04 12:10:00,
2013-03-04 05:15:00,60.1,24.2,29.88,NW,315,0.0,0.0,25,0.00,,---,0.00,VWS V14.01,2013-03-04 12:15:00,
2013-03-04 05:20:00,60.1,24.2,29.88,West,270,0.0,0.0,25,0.00,,---,0.00,VWS V14.01,2013-03-04 12:20:00,
2013-03-04 05:25:00,60.1,24.2,29.88,NW,315,0.0,0.0,25,0.00,,---,0.00,VWS V14.01,2013-03-04 12:25:00,
2013-03-04 05:30:00,60.1,24.2,29.88,WNW,292,0.0,0.0,25,0.00,,---,0.00,VWS V14.01,2013-03-04 12:30:00,
2013-03-04 05:35:00,59.9,24.0,29.88,West,270,0.0,0.0,25,0.00,,---,0.00,VWS V14.01,2013-03-04 12:35:00,
2013-03-04 05:40:00,59.7,23.9,29.88,WNW,292,0.0,0.0,25,0.00,,---,0.00,VWS V14.01,2013-03-04 12:40:00,
2013-03-04 05:45:00,59.4,23.6,29.88,NW,315,0.0,0.0,25,0.00,,---,0.00,VWS V14.01,2013-03-04 12:45:00,
2013-03-04 05:50:00,59.4,23.6,29.88,NW,315,0.0,0.0,25,0.00,,---,0.00,VWS V14.01,2013-03-04 12:50:00,
2013-03-04 05:55:00,59.2,23.4,29.88,WNW,292,0.0,0.0,25,0.00,,---,0.00,VWS V14.01,2013-03-04 12:55:00,
2013-03-04 06:00:00,59.0,23.2,29.88,NNW,338,0.0,0.0,25,0.00,,---,0.00,VWS V14.01,2013-03-04 13:00:00,
2013-03-04 06:05:00,58.8,23.1,29.88,West,270,0.0,0.0,25,0.00,,---,0.00,VWS V14.01,2013-03-04 13:05:00,
2013-03-04 06:10:00,58.8,23.1,29.88,NW,315,0.0,0.0,25,0.00,,---,0.00,VWS V14.01,2013-03-04 13:10:00,
2013-03-04 06:15:00,59.0,23.2,29.88,NW,315,0.0,0.0,25,0.00,,---,0.00,VWS V14.01,2013-03-04 13:15:00,
2013-03-04 06:21:00,59.0,23.2,29.88,North,0,0.0,0.0,25,0.00,,---,0.00,VWS V14.01,2013-03-04 13:21:00,
2013-03-04 06:26:00,58.8,23.1,29.88,NW,315,0.0,0.0,25,0.00,,---,0.00,VWS V14.01,2013-03-04 13:26:00,
2013-03-04 06:31:00,58.6,22.9,29.88,NNW,338,0.0,0.0,25,0.00,,---,0.00,VWS V14.01,2013-03-04 13:31:00,
2013-03-04 06:36:00,58.3,22.6,29.88,WNW,292,0.0,0.0,25,0.00,,---,0.00,VWS V14.01,2013-03-04 13:36:00,
2013-03-04 06:41:00,57.9,22.3,29.91,WSW,248,0.0,0.0,25,0.00,,---,0.00,VWS V14.01,2013-03-04 13:41:00,
2013-03-04 06:46:00,57.6,22.0,29.91,WSW,248,0.0,0.0,25,0.00,,---,0.00,VWS V14.01,2013-03-04 13:46:00,
2013-03-04 06:51:00,57.2,21.7,29.91,West,270,0.0,0.0,25,0.00,,---,0.00,VWS V14.01,2013-03-04 13:51:00,
2013-03-04 06:56:00,56.8,22.3,29.91,West,270,0.0,0.0,26,0.00,,---,0.00,VWS V14.01,2013-03-04 13:56:00,
2013-03-04 07:01:00,56.5,22.0,29.91,WNW,292,0.0,0.0,26,0.00,,---,0.00,VWS V14.01,2013-03-04 14:01:00,
2013-03-04 07:06:00,55.9,21.6,29.91,WNW,292,0.0,0.0,26,0.00,,---,0.00,VWS V14.01,2013-03-04 14:06:00,
2013-03-04 07:11:00,55.6,21.3,29.91,WNW,292,0.0,0.0,26,0.00,,---,0.00,VWS V14.01,2013-03-04 14:11:00,
2013-03-04 07:16:00,55.8,21.4,29.91,WNW,292,0.0,0.0,26,0.00,,---,0.00,VWS V14.01,2013-03-04 14:16:00,
2013-03-04 07:21:00,55.8,21.4,29.91,West,270,0.0,0.0,26,0.00,,---,0.00,VWS V14.01,2013-03-04 14:21:00,
2013-03-04 07:26:00,55.6,21.3,29.91,WSW,248,0.0,0.0,26,0.00,,---,0.00,VWS V14.01,2013-03-04 14:26:00,
2013-03-04 07:31:00,55.8,21.4,29.91,West,270,0.0,0.0,26,0.00,,---,0.00,VWS V14.01,2013-03-04 14:31:00,
2013-03-04 07:36:00,56.1,21.7,29.91,South,180,0.0,0.0,26,0.00,,---,0.00,VWS V14.01,2013-03-04 14:36:00,
2013-03-04 07:41:00,56.7,22.2,29.91,SSE,158,0.0,0.0,26,0.00,,---,0.00,VWS V14.01,2013-03-04 14:41:00,
2013-03-04 07:46:00,57.4,22.8,29.91,SSE,158,0.0,0.0,26,0.00,,---,0.00,VWS V14.01,2013-03-04 14:46:00,
2013-03-04 07:51:00,57.7,23.1,29.91,SSE,158,0.0,0.0,26,0.00,,---,0.00,VWS V14.01,2013-03-04 14:51:00,
2013-03-04 07:56:00,58.5,23.7,29.91,SE,135,0.0,0.0,26,0.00,,---,0.00,VWS V14.01,2013-03-04 14:56:00,
2013-03-04 08:01:00,59.2,23.4,29.91,WNW,292,0.0,0.0,25,0.00,,---,0.00,VWS V14.01,2013-03-04 15:01:00,
2013-03-04 08:06:00,60.3,24.3,29.91,SW,225,0.0,0.0,25,0.00,,---,0.00,VWS V14.01,2013-03-04 15:06:00,
2013-03-04 08:11:00,61.2,25.1,29.91,SW,225,0.0,0.0,25,0.00,,---,0.00,VWS V14.01,2013-03-04 15:11:00,
2013-03-04 08:16:00,61.5,25.4,29.91,WSW,248,0.0,0.0,25,0.00,,---,0.00,VWS V14.01,2013-03-04 15:16:00,
2013-03-04 08:21:00,63.0,26.6,29.91,WSW,248,0.0,0.0,25,0.00,,---,0.00,VWS V14.01,2013-03-04 15:21:00,
2013-03-04 08:26:00,63.7,26.2,29.91,NW,315,0.0,0.0,24,0.00,,---,0.00,VWS V14.01,2013-03-04 15:26:00,
2013-03-04 08:31:00,64.2,26.7,29.91,SW,225,0.0,0.0,24,0.00,,---,0.00,VWS V14.01,2013-03-04 15:31:00,
2013-03-04 08:37:00,64.8,27.2,29.91,SW,225,0.0,0.0,24,0.00,,---,0.00,VWS V14.01,2013-03-04 15:37:00,
2013-03-04 08:42:00,64.9,27.3,29.91,WSW,248,2.0,2.0,24,0.00,,---,0.00,VWS V14.01,2013-03-04 15:42:00,
2013-03-04 08:47:00,65.1,27.5,29.91,SW,225,0.0,0.0,24,0.00,,---,0.00,VWS V14.01,2013-03-04 15:47:00,
2013-03-04 08:52:00,65.5,27.8,29.91,SW,225,0.0,0.0,24,0.00,,---,0.00,VWS V14.01,2013-03-04 15:52:00,
2013-03-04 08:57:00,65.8,28.1,29.91,South,180,2.9,2.9,24,0.00,,---,0.00,VWS V14.01,2013-03-04 15:57:00,
2013-03-04 09:02:00,66.0,28.2,29.91,SSW,202,0.0,0.0,24,0.00,,---,0.00,VWS V14.01,2013-03-04 16:02:00,
2013-03-04 09:07:00,66.0,28.2,29.91,WSW,248,0.0,0.0,24,0.00,,---,0.00,VWS V14.01,2013-03-04 16:07:00,
2013-03-04 09:12:00,66.4,28.5,29.91,WSW,248,1.6,1.6,24,0.00,,---,0.00,VWS V14.01,2013-03-04 16:12:00,
2013-03-04 09:17:00,66.4,28.5,29.91,West,270,0.0,3.4,24,0.00,,---,0.00,VWS V14.01,2013-03-04 16:17:00,
2013-03-04 09:22:00,66.7,28.8,29.91,WSW,248,0.0,0.0,24,0.00,,---,0.00,VWS V14.01,2013-03-04 16:22:00,
2013-03-04 09:28:00,66.9,29.0,29.94,WSW,248,0.9,0.9,24,0.00,,---,0.00,VWS V14.01,2013-03-04 16:28:00,
2013-03-04 09:33:00,67.3,29.3,29.94,SW,225,0.0,0.0,24,0.00,,---,0.00,VWS V14.01,2013-03-04 16:33:00,
2013-03-04 09:38:00,67.3,29.3,29.94,West,270,0.0,0.0,24,0.00,,---,0.00,VWS V14.01,2013-03-04 16:38:00,
2013-03-04 09:43:00,67.8,29.7,29.94,WSW,248,5.6,5.6,24,0.00,,---,0.00,VWS V14.01,2013-03-04 16:43:00,
2013-03-04 09:48:00,67.6,29.6,29.94,WNW,292,3.6,3.6,24,0.00,,---,0.00,VWS V14.01,2013-03-04 16:48:00,
2013-03-04 09:53:00,68.0,29.9,29.94,SW,225,0.0,4.0,24,0.00,,---,0.00,VWS V14.01,2013-03-04 16:53:00,
2013-03-04 09:58:00,68.4,30.2,29.91,SSW,202,0.0,3.8,24,0.00,,---,0.00,VWS V14.01,2013-03-04 16:58:00,
2013-03-04 10:03:00,68.2,30.0,29.91,WNW,292,2.5,2.5,24,0.00,,---,0.00,VWS V14.01,2013-03-04 17:03:00,
2013-03-04 10:08:00,68.2,30.0,29.91,WSW,248,0.0,0.0,24,0.00,,---,0.00,VWS V14.01,2013-03-04 17:08:00,
2013-03-04 10:13:00,68.2,30.0,29.91,West,270,6.3,6.3,24,0.00,,---,0.00,VWS V14.01,2013-03-04 17:13:00,
2013-03-04 10:18:00,68.9,30.6,29.91,SSW,202,0.0,1.1,24,0.00,,---,0.00,VWS V14.01,2013-03-04 17:18:00,
2013-03-04 10:23:00,69.6,31.3,29.91,WSW,248,0.0,0.0,24,0.00,,---,0.00,VWS V14.01,2013-03-04 17:23:00,
2013-03-04 10:28:00,70.0,31.6,29.91,South,180,0.0,0.0,24,0.00,,---,0.00,VWS V14.01,2013-03-04 17:28:00,
2013-03-04 10:33:00,69.8,31.4,29.91,South,180,4.7,4.7,24,0.00,,---,0.00,VWS V14.01,2013-03-04 17:33:00,
2013-03-04 10:38:00,69.8,31.4,29.91,WSW,248,0.0,0.0,24,0.00,,---,0.00,VWS V14.01,2013-03-04 17:38:00,
2013-03-04 10:43:00,70.0,31.6,29.91,WSW,248,1.3,2.9,24,0.00,,---,0.00,VWS V14.01,2013-03-04 17:43:00,
2013-03-04 10:48:00,70.2,31.7,29.91,SW,225,0.9,0.9,24,0.00,,---,0.00,VWS V14.01,2013-03-04 17:48:00,
2013-03-04 10:53:00,70.2,31.7,29.91,ESE,112,7.4,7.4,24,0.00,,---,0.00,VWS V14.01,2013-03-04 17:53:00,
2013-03-04 10:58:00,70.2,31.7,29.91,SW,225,2.9,2.9,24,0.00,,---,0.00,VWS V14.01,2013-03-04 17:58:00,
2013-03-04 11:03:00,69.3,31.0,29.91,WNW,292,3.8,7.4,24,0.00,,---,0.00,VWS V14.01,2013-03-04 18:03:00,
2013-03-04 11:08:00,69.6,31.3,29.91,South,180,1.3,2.5,24,0.00,,---,0.00,VWS V14.01,2013-03-04 18:08:00,
2013-03-04 11:13:00,70.2,31.7,29.91,SE,135,0.0,0.0,24,0.00,,---,0.00,VWS V14.01,2013-03-04 18:13:00,
2013-03-04 11:19:00,70.7,32.2,29.91,West,270,0.0,0.0,24,0.00,,---,0.00,VWS V14.01,2013-03-04 18:19:00,
2013-03-04 11:24:00,70.9,32.3,29.91,WSW,248,0.0,0.0,24,0.00,,---,0.00,VWS V14.01,2013-03-04 18:24:00,
2013-03-04 11:29:00,71.1,31.4,29.91,SW,225,0.9,0.9,23,0.00,,---,0.00,VWS V14.01,2013-03-04 18:29:00,
2013-03-04 11:30:00,71.1,31.4,29.91,South,180,1.1,1.1,23,0.00,,---,0.00,VWS V14.01,2013-03-04 18:30:00,
2013-03-04 11:35:00,71.1,31.4,29.91,NNE,22,0.0,0.0,23,0.00,,---,0.00,VWS V14.01,2013-03-04 18:35:00,
2013-03-04 11:40:00,70.7,31.1,29.91,NNW,338,0.0,0.0,23,0.00,,---,0.00,VWS V14.01,2013-03-04 18:40:00,
2013-03-04 11:45:00,70.9,31.3,29.91,South,180,4.7,4.7,23,0.00,,---,0.00,VWS V14.01,2013-03-04 18:45:00,
2013-03-04 11:50:00,71.1,31.4,29.91,WSW,248,2.0,2.0,23,0.00,,---,0.00,VWS V14.01,2013-03-04 18:50:00,
2013-03-04 11:55:00,71.4,31.7,29.91,WSW,248,0.0,0.0,23,0.00,,---,0.00,VWS V14.01,2013-03-04 18:55:00,
2013-03-04 12:00:00,71.4,31.7,29.91,SSW,202,2.7,5.6,23,0.00,,---,0.00,VWS V14.01,2013-03-04 19:00:00,
2013-03-04 12:05:00,71.6,31.9,29.91,West,270,0.0,0.0,23,0.00,,---,0.00,VWS V14.01,2013-03-04 19:05:00,
2013-03-04 12:10:00,71.8,32.0,29.91,SSW,202,0.0,9.6,23,0.00,,---,0.00,VWS V14.01,2013-03-04 19:10:00,
2013-03-04 12:15:00,71.6,31.9,29.91,West,270,6.0,6.0,23,0.00,,---,0.00,VWS V14.01,2013-03-04 19:15:00,
2013-03-04 12:20:00,71.4,31.7,29.91,SW,225,5.6,7.2,23,0.00,,---,0.00,VWS V14.01,2013-03-04 19:20:00,
2013-03-04 12:25:00,71.6,31.9,29.91,SW,225,0.0,0.0,23,0.00,,---,0.00,VWS V14.01,2013-03-04 19:25:00,
2013-03-04 12:30:00,71.8,32.0,29.91,ESE,112,0.0,0.0,23,0.00,,---,0.00,VWS V14.01,2013-03-04 19:30:00,
2013-03-04 12:35:00,72.0,32.2,29.91,WSW,248,2.2,2.2,23,0.00,,---,0.00,VWS V14.01,2013-03-04 19:35:00,
2013-03-04 12:40:00,71.4,31.7,29.91,NW,315,4.0,4.0,23,0.00,,---,0.00,VWS V14.01,2013-03-04 19:40:00,
2013-03-04 12:45:00,71.6,31.9,29.91,West,270,6.9,6.9,23,0.00,,---,0.00,VWS V14.01,2013-03-04 19:45:00,
2013-03-04 12:50:00,71.4,31.7,29.91,SW,225,0.0,5.4,23,0.00,,---,0.00,VWS V14.01,2013-03-04 19:50:00,
2013-03-04 12:56:00,71.8,32.0,29.91,SW,225,0.0,0.0,23,0.00,,---,0.00,VWS V14.01,2013-03-04 19:56:00,
2013-03-04 13:01:00,71.6,31.9,29.91,WSW,248,5.6,5.6,23,0.00,,---,0.00,VWS V14.01,2013-03-04 20:01:00,
2013-03-04 13:06:00,71.6,31.9,29.91,South,180,0.9,0.9,23,0.00,,---,0.00,VWS V14.01,2013-03-04 20:06:00,
2013-03-04 13:11:00,72.0,32.2,29.91,SW,225,6.5,6.5,23,0.00,,---,0.00,VWS V14.01,2013-03-04 20:11:00,
2013-03-04 13:16:00,72.1,32.3,29.91,SW,225,2.9,2.9,23,0.00,,---,0.00,VWS V14.01,2013-03-04 20:16:00,
2013-03-04 13:21:00,72.0,32.2,29.91,South,180,3.1,3.1,23,0.00,,---,0.00,VWS V14.01,2013-03-04 20:21:00,
2013-03-04 13:26:00,71.4,31.7,29.91,ENE,68,0.0,5.4,23,0.00,,---,0.00,VWS V14.01,2013-03-04 20:26:00,
2013-03-04 13:31:00,71.4,31.7,29.91,WSW,248,0.0,0.0,23,0.00,,---,0.00,VWS V14.01,2013-03-04 20:31:00,
2013-03-04 13:36:00,71.2,31.6,29.91,WNW,292,5.8,5.8,23,0.00,,---,0.00,VWS V14.01,2013-03-04 20:36:00,
2013-03-04 13:41:00,71.6,31.9,29.91,SW,225,0.9,2.0,23,0.00,,---,0.00,VWS V14.01,2013-03-04 20:41:00,
2013-03-04 13:46:00,71.8,30.9,29.91,WSW,248,8.7,8.7,22,0.00,,---,0.00,VWS V14.01,2013-03-04 20:46:00,
2013-03-04 13:51:00,72.0,31.1,29.91,SW,225,3.4,3.4,22,0.00,,---,0.00,VWS V14.01,2013-03-04 20:51:00,
2013-03-04 13:56:00,71.4,31.7,29.91,SSW,202,5.4,5.4,23,0.00,,---,0.00,VWS V14.01,2013-03-04 20:56:00,
2013-03-04 14:01:00,71.4,31.7,29.91,SSW,202,8.7,8.7,23,0.00,,---,0.00,VWS V14.01,2013-03-04 21:01:00,
2013-03-04 14:07:00,71.8,30.9,29.91,SW,225,8.1,8.1,22,0.00,,---,0.00,VWS V14.01,2013-03-04 21:07:00,
2013-03-04 14:12:00,72.0,31.1,29.91,SSW,202,4.9,4.9,22,0.00,,---,0.00,VWS V14.01,2013-03-04 21:12:00,
2013-03-04 14:17:00,71.6,30.8,29.91,WSW,248,5.4,5.4,22,0.00,,---,0.00,VWS V14.01,2013-03-04 21:17:00,
2013-03-04 14:22:00,72.1,31.2,29.91,WSW,248,4.0,4.0,22,0.00,,---,0.00,VWS V14.01,2013-03-04 21:22:00,
2013-03-04 14:27:00,71.8,30.9,29.91,WNW,292,0.0,5.6,22,0.00,,---,0.00,VWS V14.01,2013-03-04 21:27:00,
2013-03-04 14:32:00,72.1,31.2,29.91,West,270,3.6,3.6,22,0.00,,---,0.00,VWS V14.01,2013-03-04 21:32:00,
2013-03-04 14:37:00,72.0,31.1,29.91,SW,225,3.6,7.4,22,0.00,,---,0.00,VWS V14.01,2013-03-04 21:37:00,
2013-03-04 14:42:00,72.1,31.2,29.91,SW,225,1.1,1.1,22,0.00,,---,0.00,VWS V14.01,2013-03-04 21:42:00,
2013-03-04 14:47:00,72.3,31.4,29.91,SW,225,5.6,5.6,22,0.00,,---,0.00,VWS V14.01,2013-03-04 21:47:00,
2013-03-04 14:52:00,72.3,31.4,29.91,WSW,248,1.3,1.3,22,0.00,,---,0.00,VWS V14.01,2013-03-04 21:52:00,
2013-03-04 14:57:00,72.0,31.1,29.91,SSW,202,0.0,1.6,22,0.00,,---,0.00,VWS V14.01,2013-03-04 21:57:00,
2013-03-04 15:02:00,72.1,31.2,29.91,SW,225,4.9,4.9,22,0.00,,---,0.00,VWS V14.01,2013-03-04 22:02:00,
2013-03-04 15:07:00,72.3,31.4,29.91,NW,315,2.9,2.9,22,0.00,,---,0.00,VWS V14.01,2013-03-04 22:07:00,
2013-03-04 19:17:00,61.7,27.4,29.97,NNW,338,0.0,0.0,27,0.00,,---,0.00,VWS V14.01,2013-03-05 02:17:00,
2013-03-04 19:22:00,61.3,27.1,29.97,North,0,0.0,0.0,27,0.00,,---,0.00,VWS V14.01,2013-03-05 02:22:00,
2013-03-04 19:27:00,61.2,27.8,29.97,NNW,338,0.0,0.0,28,0.00,,---,0.00,VWS V14.01,2013-03-05 02:27:00,
2013-03-04 19:32:00,61.0,27.7,29.97,NNW,338,0.0,0.0,28,0.00,,---,0.00,VWS V14.01,2013-03-05 02:32:00,
2013-03-04 19:37:00,60.6,28.2,29.97,NNW,338,0.0,0.0,29,0.00,,---,0.00,VWS V14.01,2013-03-05 02:37:00,
2013-03-04 19:42:00,60.4,28.1,29.97,North,0,0.0,0.0,29,0.00,,---,0.00,VWS V14.01,2013-03-05 02:42:00,
2013-03-04 19:48:00,60.3,28.7,29.97,North,0,0.0,0.0,30,0.00,,---,0.00,VWS V14.01,2013-03-05 02:48:00,
2013-03-04 19:53:00,60.1,28.6,29.97,NNW,338,0.0,0.0,30,0.00,,---,0.00,VWS V14.01,2013-03-05 02:53:00,
2013-03-04 19:58:00,59.5,28.1,30.00,ENE,68,0.0,0.0,30,0.00,,---,0.00,VWS V14.01,2013-03-05 02:58:00,
2013-03-04 20:03:00,59.0,28.4,30.00,North,0,0.0,0.0,31,0.00,,---,0.00,VWS V14.01,2013-03-05 03:03:00,
2013-03-04 20:08:00,58.6,28.9,30.00,NE,45,0.0,0.0,32,0.00,,---,0.00,VWS V14.01,2013-03-05 03:08:00,
2013-03-04 20:13:00,58.1,29.2,30.00,ENE,68,0.0,0.0,33,0.00,,---,0.00,VWS V14.01,2013-03-05 03:13:00,
2013-03-04 20:18:00,57.7,30.3,30.00,NE,45,0.0,0.9,35,0.00,,---,0.00,VWS V14.01,2013-03-05 03:18:00,
2013-03-04 20:23:00,57.7,30.3,30.00,NE,45,0.0,0.0,35,0.00,,---,0.00,VWS V14.01,2013-03-05 03:23:00,
2013-03-04 20:28:00,58.1,30.6,30.00,NW,315,0.0,0.0,35,0.00,,---,0.00,VWS V14.01,2013-03-05 03:28:00,
2013-03-04 20:33:00,58.5,30.9,30.00,NNW,338,0.0,0.0,35,0.00,,---,0.00,VWS V14.01,2013-03-05 03:33:00,
2013-03-04 20:38:00,58.5,30.9,30.00,NNW,338,0.0,0.0,35,0.00,,---,0.00,VWS V14.01,2013-03-05 03:38:00,
2013-03-04 20:43:00,58.5,30.2,30.00,North,0,0.0,0.0,34,0.00,,---,0.00,VWS V14.01,2013-03-05 03:43:00,
2013-03-04 20:48:00,58.3,30.1,30.00,East,90,0.0,0.0,34,0.00,,---,0.00,VWS V14.01,2013-03-05 03:48:00,
2013-03-04 20:54:00,58.1,30.6,30.00,NNE,22,0.0,0.0,35,0.00,,---,0.00,VWS V14.01,2013-03-05 03:54:00,
2013-03-04 20:59:00,58.1,30.6,30.03,North,0,0.0,0.0,35,0.00,,---,0.00,VWS V14.01,2013-03-05 03:59:00,
2013-03-04 21:04:00,58.1,30.6,30.03,WNW,292,0.0,0.0,35,0.00,,---,0.00,VWS V14.01,2013-03-05 04:04:00,
2013-03-04 21:09:00,57.9,30.5,30.03,NNE,22,0.0,0.0,35,0.00,,---,0.00,VWS V14.01,2013-03-05 04:09:00,
2013-03-04 21:14:00,57.7,30.3,30.03,NW,315,0.0,0.0,35,0.00,,---,0.00,VWS V14.01,2013-03-05 04:14:00,
2013-03-04 21:19:00,57.4,30.0,30.03,NW,315,0.0,0.0,35,0.00,,---,0.00,VWS V14.01,2013-03-05 04:19:00,
2013-03-04 21:24:00,57.4,30.0,30.03,NNW,338,0.0,0.0,35,0.00,,---,0.00,VWS V14.01,2013-03-05 04:24:00,
2013-03-04 21:29:00,57.2,29.8,30.03,North,0,0.0,0.0,35,0.00,,---,0.00,VWS V14.01,2013-03-05 04:29:00,
2013-03-04 21:34:00,57.4,30.0,30.03,NNW,338,0.0,0.0,35,0.00,,---,0.00,VWS V14.01,2013-03-05 04:34:00,
2013-03-04 21:39:00,57.2,29.8,30.03,NNW,338,0.0,0.0,35,0.00,,---,0.00,VWS V14.01,2013-03-05 04:39:00,
2013-03-04 21:44:00,57.2,29.8,30.03,NNW,338,0.0,0.0,35,0.00,,---,0.00,VWS V14.01,2013-03-05 04:44:00,
2013-03-04 21:49:00,57.2,29.8,30.03,NNE,22,0.0,0.0,35,0.00,,---,0.00,VWS V14.01,2013-03-05 04:49:00,
2013-03-04 21:54:00,57.2,29.8,30.03,NNW,338,0.0,0.9,35,0.00,,---,0.00,VWS V14.01,2013-03-05 04:54:00,
2013-03-04 21:59:00,57.2,29.8,30.03,NE,45,0.0,0.0,35,0.00,,---,0.00,VWS V14.01,2013-03-05 04:59:00,
2013-03-04 22:00:00,57.2,29.8,30.03,NE,45,0.0,0.0,35,0.00,,---,0.00,VWS V14.01,2013-03-05 05:00:00,
2013-03-04 22:05:00,57.0,29.7,30.03,NW,315,0.0,0.0,35,0.00,,---,0.00,VWS V14.01,2013-03-05 05:05:00,
2013-03-04 22:10:00,56.7,29.3,30.03,North,0,0.0,0.0,35,0.00,,---,0.00,VWS V14.01,2013-03-05 05:10:00,
2013-03-04 22:15:00,56.3,29.0,30.03,NNW,338,0.0,0.0,35,0.00,,---,0.00,VWS V14.01,2013-03-05 05:15:00,
2013-03-04 22:20:00,56.3,29.0,30.03,NE,45,0.0,0.0,35,0.00,,---,0.00,VWS V14.01,2013-03-05 05:20:00,
2013-03-04 22:26:00,56.1,29.5,30.03,North,0,0.0,0.0,36,0.00,,---,0.00,VWS V14.01,2013-03-05 05:26:00,
2013-03-04 22:31:00,56.1,29.5,30.03,NNW,338,0.0,0.0,36,0.00,,---,0.00,VWS V14.01,2013-03-05 05:31:00,
2013-03-04 22:36:00,56.1,29.5,30.03,North,0,0.0,0.0,36,0.00,,---,0.00,VWS V14.01,2013-03-05 05:36:00,
2013-03-04 22:41:00,55.9,29.4,30.03,NNW,338,0.0,0.0,36,0.00,,---,0.00,VWS V14.01,2013-03-05 05:41:00,
2013-03-04 22:46:00,55.8,29.2,30.03,NNW,338,0.0,0.0,36,0.00,,---,0.00,VWS V14.01,2013-03-05 05:46:00,
2013-03-04 22:51:00,55.8,29.2,30.03,NNW,338,0.0,0.0,36,0.00,,---,0.00,VWS V14.01,2013-03-05 05:51:00,
2013-03-04 22:56:00,55.6,29.1,30.03,NW,315,0.0,0.0,36,0.00,,---,0.00,VWS V14.01,2013-03-05 05:56:00,
2013-03-04 23:01:00,55.6,29.1,30.03,North,0,0.0,0.0,36,0.00,,---,0.00,VWS V14.01,2013-03-05 06:01:00,
2013-03-04 23:06:00,55.8,29.2,30.03,North,0,0.0,0.0,36,0.00,,---,0.00,VWS V14.01,2013-03-05 06:06:00,
2013-03-04 23:11:00,55.9,29.4,30.03,NNW,338,0.0,0.0,36,0.00,,---,0.00,VWS V14.01,2013-03-05 06:11:00,
2013-03-04 23:16:00,55.9,29.4,30.03,NW,315,0.0,0.0,36,0.00,,---,0.00,VWS V14.01,2013-03-05 06:16:00,
2013-03-04 23:21:00,55.8,29.2,30.03,NNE,22,0.0,0.0,36,0.00,,---,0.00,VWS V14.01,2013-03-05 06:21:00,
2013-03-04 23:26:00,55.9,29.4,30.03,NNW,338,0.0,0.0,36,0.00,,---,0.00,VWS V14.01,2013-03-05 06:26:00,
2013-03-04 23:31:00,55.9,29.4,30.03,NNE,22,0.0,0.0,36,0.00,,---,0.00,VWS V14.01,2013-03-05 06:31:00,
2013-03-04 23:36:00,55.6,29.1,30.03,North,0,0.0,0.0,36,0.00,,---,0.00,VWS V14.01,2013-03-05 06:36:00,
2013-03-04 23:41:00,55.6,29.1,30.03,NNW,338,0.0,0.0,36,0.00,,---,0.00,VWS V14.01,2013-03-05 06:41:00,
2013-03-04 23:46:00,55.6,29.1,30.03,North,0,0.0,0.0,36,0.00,,---,0.00,VWS V14.01,2013-03-05 06:46:00,
2013-03-04 23:51:00,55.4,28.9,30.03,NNW,338,0.0,0.0,36,0.00,,---,0.00,VWS V14.01,2013-03-05 06:51:00,
2013-03-04 23:56:00,55.2,29.4,30.03,NNW,338,0.0,0.0,37,0.00,,---,0.00,VWS V14.01,2013-03-05 06:56:00,